Wind_Speed
5 5 5 5 6 6 6 6 6 6 6 7 7 7 7 7 7 7 7 7 7 7 7 7 6 6 6 6 6 6 6 6 5 5 5 5 6 6 6 6 6 6 6
5 5 6 6 6 6 6 6 6 6 7 8 8 8 8 8 8 8 7 7 7 7 7 7 7 7 7 7 6 6 6 6 6 6 6 6 6 7 7 7 7 7 7
6 6 6 6 6 7 7 7 7 7 7 7 7 8 8 9 8 8 8 8 8 8 8 8 8 8 7 8 7 7 7 6 7 7 6 6 7 7 7 8 8 8 8
6 6 6 7 7 7 7 7 7 8 8 7 7 8 8 9 9 9 8 8 8 8 8 8 8 8 8 8 8 8 8 7 7 7 7 7 7 7 8 8 9 9 9
6 6 7 7 7 8 8 8 8 8 8 8 8 8 9 9 9 9 9 9 9 9 9 9 9 9 8 8 8 8 8 8 8 8 8 8 8 8 8 8 8 8 8
7 7 8 7 8 8 8 7 7 8 8 8 8 8 9 9 10 9 9 9 9 9 9 9 8 9 8 8 8 8 9 9 9 9 9 9 8 8 8 8 9 9 9
7 8 8 8 8 8 8 7 8 8 8 9 8 8 9 9 10 9 9 9 9 8 8 8 8 8 8 8 9 9 9 9 9 9 9 9 9 9 9 9 9 9 10
8 8 8 8 8 8 8 7 7 7 8 8 8 8 8 8 9 9 9 9 8 8 8 8 8 8 8 8 9 9 10 10 10 10 9 10 10 10 10 10 10 10 11
8 8 8 7 7 7 7 7 7 7 8 8 8 8 8 8 9 9 9 9 9 9 9 9 8 9 9 9 9 9 10 10 10 10 10 10 10 10 10 10 10 10 10
8 8 7 7 7 7 7 7 8 7 8 8 8 8 8 9 9 8 8 8 9 9 9 9 9 9 9 9 9 9 9 10 11 10 10 10 10 10 10 10 10 9 10
8 8 8 7 8 8 8 8 8 8 8 8 8 8 8 9 9 8 8 8 9 9 9 9 9 9 9 9 9 9 9 9 10 10 10 10 10 9 9 9 9 9 10
9 8 8 8 8 8 8 8 8 9 9 9 8 8 8 8 9 8 8 8 9 9 9 9 9 9 9 9 10 9 9 9 9 9 10 9 9 9 9 9 9 9 9
8 9 9 8 9 9 9 9 9 9 9 9 8 9 8 8 8 8 8 8 8 8 8 9 9 9 9 9 9 9 9 8 8 9 9 9 8 8 9 9 9 9 9
8 9 9 9 9 9 9 9 9 9 9 9 9 9 8 8 8 8 8 8 8 8 8 8 8 9 9 10 10 10 9 8 8 8 9 9 8 9 9 9 9 9 9
9 9 10 10 10 10 9 9 10 10 10 9 9 9 8 7 7 7 7 7 7 8 7 7 8 8 9 9 9 9 9 8 7 7 8 9 8 9 9 9 8 9 9
9 10 10 11 10 10 10 10 9 9 9 9 9 8 8 7 6 6 6 6 7 7 7 7 7 8 8 8 8 8 7 7 7 7 8 9 9 9 9 9 8 8 8
10 10 10 11 11 11 10 10 10 10 9 9 8 8 8 8 7 6 7 6 6 6 7 7 7 7 8 8 7 7 7 7 7 8 8 8 9 9 8 8 8 7 7
11 11 11 11 11 11 11 11 10 10 10 9 8 8 8 8 8 7 7 7 6 6 6 6 7 7 7 6 6 7 7 7 7 7 7 7 7 7 7 7 7 7 6
12 11 11 11 11 11 11 11 11 10 9 9 8 8 8 8 8 8 8 7 7 6 7 7 7 7 6 6 6 7 7 7 7 7 7 8 7 7 7 8 8 7 7
12 12 12 11 12 11 11 11 11 11 10 9 8 8 8 8 8 8 8 8 8 7 7 7 7 7 7 7 7 7 7 7 8 8 8 8 8 7 7 7 7 7 7
12 12 12 12 13 12 12 11 11 10 10 9 9 8 9 9 9 9 9 9 9 8 8 8 8 8 8 8 8 8 8 8 9 9 9 9 8 7 7 6 6 6 6
12 12 12 12 13 13 13 11 10 10 10 10 9 8 9 10 10 9 9 9 9 10 9 9 9 9 9 9 8 8 8 8 9 9 9 9 8 8 7 7 6 6 6
13 13 13 13 14 14 13 12 11 10 10 10 9 9 9 9 9 9 10 10 10 10 10 10 10 9 9 9 9 9 9 9 9 9 9 9 9 8 8 8 7 7 6
14 14 14 14 14 14 14 13 12 11 11 10 10 10 10 10 10 10 10 10 10 10 10 10 10 10 9 9 9 9 9 9 10 10 10 10 10 10 10 9 8 7 7
14 15 15 15 15 15 15 14 13 12 12 11 11 11 11 11 10 10 10 10 10 11 11 11 11 11 11 11 10 10 10 10 10 10 10 10 10 10 10 9 9 9 8
16 16 16 16 16 16 15 14 14 13 13 12 11 11 11 11 11 10 10 10 10 11 11 11 11 12 12 12 11 11 11 11 10 11 11 11 10 10 10 10 10 9 9
Wind_Direction
330 324 319 320 313 311 305 298 286 282 274 272 273 274 271 273 273 267 262 260 261 263 265 268 266 261 256 254 253 254 257 262 256 258 256 253 247 244 242 241 243 243 248
322 316 317 315 314 309 305 300 287 281 275 272 273 273 269 271 271 265 264 263 264 264 263 267 269 263 260 255 253 252 251 255 258 259 260 260 253 246 247 248 248 251 251
323 321 320 314 311 305 301 297 292 285 281 280 276 276 271 268 269 266 263 263 264 265 265 265 265 261 260 258 254 251 248 251 253 256 261 262 255 249 249 251 252 253 255
327 325 321 315 308 305 300 294 290 285 283 283 281 279 272 270 269 264 262 261 263 267 267 264 260 259 261 258 255 252 247 249 254 255 258 259 256 253 252 251 255 258 258
332 327 321 316 310 306 302 297 290 283 284 282 281 277 270 270 268 265 265 262 263 265 266 263 260 258 259 259 256 254 250 251 257 258 258 258 258 255 254 252 254 256 256
332 326 321 317 311 305 301 297 291 287 284 281 280 278 273 271 272 273 267 263 264 266 263 261 259 258 260 262 257 255 254 256 256 257 258 257 258 256 254 255 256 258 259
332 327 322 318 313 307 302 295 293 289 286 284 280 280 280 279 278 274 269 266 266 266 261 262 260 260 262 260 256 256 255 255 257 260 258 255 256 258 258 259 261 262 262
329 328 324 320 318 313 306 297 294 291 288 286 283 281 283 283 280 276 269 267 266 265 263 265 266 265 262 260 258 257 258 257 257 258 258 257 256 257 262 265 266 266 263
326 324 322 318 316 314 308 303 297 291 290 290 289 283 281 283 282 277 269 264 262 262 263 266 267 266 261 261 261 258 259 261 260 258 257 257 256 259 262 264 267 271 269
326 323 321 319 317 315 311 308 303 300 293 291 291 288 284 283 281 278 267 263 262 263 264 266 266 264 260 261 260 258 260 263 261 261 259 257 257 258 261 264 267 271 269
328 326 323 320 316 313 309 308 304 300 297 296 294 291 289 286 282 277 270 263 262 264 265 267 265 261 260 261 258 258 265 268 265 263 263 261 258 257 260 262 265 269 269
329 327 325 324 320 313 310 307 304 297 295 296 294 293 289 286 283 276 272 269 264 264 265 265 263 261 259 260 261 265 269 268 267 264 262 259 257 259 262 263 265 269 268
327 329 330 327 321 314 312 307 304 300 296 295 295 295 289 285 281 277 273 272 267 267 268 265 262 261 259 261 264 266 267 266 262 263 261 259 260 264 263 264 268 271 270
323 325 328 326 320 315 312 309 306 304 300 294 288 295 292 284 279 279 278 274 271 269 271 268 265 262 259 259 260 261 264 266 265 262 262 260 261 265 267 269 273 271 270
320 323 323 322 321 316 311 309 307 304 300 297 291 290 292 287 281 282 283 276 278 272 271 268 262 263 261 255 253 255 256 260 259 259 260 258 260 266 267 270 272 272 270
318 319 318 318 319 316 313 310 308 307 302 296 291 289 289 289 282 283 285 281 277 274 269 266 266 261 257 253 252 252 254 256 255 256 259 258 260 264 268 266 271 269 265
319 319 316 317 317 316 312 310 309 307 302 295 290 285 284 285 286 281 280 279 275 273 272 268 269 268 260 261 256 252 255 257 258 258 259 263 262 263 262 264 263 263 260
317 316 314 316 317 315 311 307 306 305 300 295 287 280 278 279 281 282 278 278 277 272 271 266 264 268 265 260 257 255 255 257 259 259 257 261 261 261 261 264 266 264 262
317 317 315 315 315 313 311 308 304 303 298 292 287 285 282 280 278 280 280 275 274 274 274 271 265 266 264 262 263 262 260 258 258 259 261 259 256 253 256 260 263 266 268
312 314 315 316 315 314 312 310 305 302 295 289 287 284 282 280 276 276 275 272 273 277 273 273 267 263 261 261 261 262 261 259 258 261 260 257 256 258 259 261 262 266 272
307 309 310 312 314 314 310 306 304 302 296 289 289 287 283 280 274 272 273 270 271 273 273 269 265 265 265 261 261 262 261 262 261 257 253 250 252 254 256 260 265 271 273
304 307 307 307 310 311 307 303 300 299 297 292 289 291 288 281 276 270 269 268 268 269 275 270 264 265 267 264 262 264 262 261 259 252 248 247 249 249 254 260 265 269 269
302 304 303 303 304 306 305 301 297 296 295 292 287 289 288 284 280 276 272 270 269 269 270 269 264 260 261 263 260 261 262 261 259 254 252 244 248 249 254 258 262 266 267
300 301 299 298 298 298 298 299 297 293 289 288 286 286 285 282 278 275 274 271 270 269 268 266 262 260 259 260 260 259 261 262 259 253 251 249 247 249 253 259 260 262 264
299 299 299 298 296 295 295 295 292 289 288 286 285 286 285 283 279 274 274 272 270 270 269 264 260 258 255 259 261 261 262 263 260 254 249 246 247 253 257 258 259 263 263
295 296 296 297 297 294 291 291 289 287 285 283 282 282 280 279 277 273 272 271 266 266 267 262 258 257 255 256 258 259 260 260 260 252 246 246 247 252 255 256 259 263 262
Height
5877 5876 5875 5875 5874 5874 5874 5873 5873 5873 5873 5872 5872 5872 5871 5871 5871 5871 5871 5871 5871 5871 5871 5871 5871 5871 5871 5870 5870 5870 5870 5870 5870 5869 5870 5870 5869 5870 5870 5870 5870 5870 5870
5877 5875 5875 5874 5873 5873 5873 5872 5872 5871 5871 5871 5871 5870 5870 5870 5870 5870 5870 5870 5870 5869 5869 5869 5869 5869 5869 5869 5869 5869 5869 5869 5869 5869 5868 5868 5868 5868 5868 5868 5868 5868 5869
5876 5875 5874 5873 5872 5872 5872 5871 5871 5870 5870 5870 5869 5869 5869 5869 5869 5868 5868 5868 5868 5868 5868 5868 5868 5868 5868 5868 5868 5868 5868 5867 5867 5867 5867 5867 5867 5867 5867 5867 5867 5867 5867
5875 5874 5873 5872 5871 5871 5870 5870 5870 5869 5869 5869 5868 5868 5867 5867 5867 5867 5867 5867 5867 5866 5866 5866 5866 5866 5866 5866 5866 5866 5866 5866 5866 5866 5866 5866 5865 5865 5865 5865 5865 5865 5865
5874 5873 5872 5871 5870 5870 5869 5869 5868 5868 5867 5867 5867 5866 5866 5866 5865 5865 5865 5865 5865 5865 5865 5864 5864 5864 5864 5864 5864 5864 5864 5864 5864 5864 5864 5864 5864 5864 5864 5864 5863 5863 5864
5873 5872 5871 5870 5869 5868 5868 5867 5867 5866 5866 5865 5865 5865 5864 5864 5863 5863 5863 5863 5863 5863 5863 5863 5863 5863 5863 5862 5862 5862 5862 5862 5862 5862 5862 5862 5862 5862 5862 5862 5862 5862 5862
5872 5871 5870 5869 5868 5867 5866 5865 5865 5864 5864 5864 5863 5863 5862 5862 5861 5861 5861 5861 5861 5861 5861 5861 5861 5861 5861 5861 5860 5860 5860 5860 5861 5861 5861 5861 5861 5861 5860 5860 5860 5860 5860
5871 5870 5869 5867 5866 5865 5864 5864 5863 5863 5862 5862 5861 5861 5860 5860 5859 5859 5859 5859 5859 5859 5859 5859 5859 5858 5858 5858 5858 5858 5858 5858 5858 5859 5859 5859 5859 5859 5858 5858 5858 5858 5858
5870 5869 5868 5866 5865 5864 5863 5862 5862 5861 5860 5860 5859 5859 5858 5858 5857 5857 5857 5857 5857 5857 5857 5857 5857 5856 5856 5856 5856 5856 5856 5856 5856 5856 5856 5856 5856 5856 5856 5856 5856 5856 5855
5869 5868 5866 5865 5864 5863 5862 5861 5860 5859 5858 5858 5857 5857 5856 5856 5855 5855 5855 5855 5855 5855 5855 5855 5854 5854 5854 5854 5853 5853 5853 5853 5854 5854 5854 5854 5854 5854 5853 5853 5853 5853 5853
5868 5867 5865 5864 5863 5861 5860 5859 5858 5858 5857 5856 5855 5855 5854 5854 5853 5853 5853 5852 5853 5852 5852 5852 5852 5852 5852 5852 5851 5851 5851 5851 5851 5851 5851 5851 5851 5851 5851 5851 5851 5851 5851
5867 5865 5864 5863 5861 5860 5859 5858 5857 5856 5855 5854 5854 5853 5852 5852 5851 5851 5851 5850 5850 5850 5850 5850 5850 5850 5849 5849 5849 5849 5849 5849 5849 5849 5849 5849 5849 5849 5849 5849 5849 5849 5849
5865 5864 5862 5861 5860 5858 5857 5856 5855 5854 5853 5852 5852 5851 5850 5850 5849 5849 5848 5848 5848 5848 5848 5848 5848 5848 5847 5847 5847 5847 5847 5847 5847 5847 5846 5846 5846 5847 5847 5847 5847 5847 5847
5863 5862 5861 5859 5858 5857 5855 5854 5853 5852 5851 5850 5850 5849 5848 5848 5847 5847 5847 5846 5846 5846 5846 5846 5845 5845 5845 5845 5845 5845 5844 5844 5844 5845 5844 5844 5844 5844 5845 5845 5844 5844 5844
5862 5860 5859 5857 5856 5855 5853 5852 5851 5850 5849 5848 5847 5847 5847 5846 5845 5845 5845 5845 5844 5844 5844 5844 5843 5843 5843 5843 5843 5842 5842 5842 5843 5843 5842 5842 5842 5842 5842 5842 5842 5842 5842
5860 5858 5857 5856 5854 5853 5851 5850 5849 5848 5847 5846 5845 5845 5845 5844 5844 5843 5843 5843 5842 5842 5842 5842 5841 5841 5841 5840 5840 5840 5840 5840 5841 5841 5840 5840 5840 5840 5840 5840 5840 5840 5839
5858 5856 5855 5854 5852 5851 5849 5848 5846 5845 5844 5844 5843 5843 5843 5842 5842 5841 5841 5841 5841 5840 5840 5840 5840 5839 5839 5839 5839 5839 5839 5838 5839 5839 5839 5838 5838 5838 5838 5838 5838 5837 5837
5855 5854 5853 5852 5850 5848 5847 5846 5844 5843 5842 5841 5841 5840 5840 5840 5840 5839 5839 5839 5839 5838 5838 5838 5838 5837 5837 5837 5837 5837 5837 5837 5837 5837 5837 5837 5836 5836 5836 5836 5836 5835 5835
5853 5852 5851 5849 5848 5846 5845 5843 5842 5841 5840 5839 5838 5838 5837 5837 5837 5837 5837 5837 5837 5837 5836 5836 5836 5836 5835 5835 5835 5835 5835 5835 5835 5835 5835 5835 5834 5834 5834 5834 5834 5834 5833
5851 5850 5848 5847 5845 5844 5842 5841 5840 5838 5837 5837 5836 5835 5835 5835 5835 5834 5835 5835 5835 5835 5835 5834 5834 5834 5834 5834 5834 5833 5833 5833 5833 5833 5833 5833 5833 5833 5833 5833 5832 5832 5832
5849 5847 5846 5844 5843 5841 5840 5838 5837 5836 5835 5834 5834 5833 5833 5832 5832 5832 5832 5832 5832 5832 5832 5832 5832 5831 5831 5831 5832 5831 5831 5831 5831 5831 5831 5831 5831 5831 5831 5831 5831 5831 5830
5846 5845 5843 5842 5840 5839 5837 5836 5835 5833 5832 5831 5831 5831 5830 5830 5830 5829 5829 5829 5829 5829 5829 5829 5829 5829 5829 5829 5829 5829 5829 5830 5829 5829 5829 5829 5829 5829 5829 5829 5829 5829 5829
5843 5841 5840 5839 5837 5836 5834 5833 5832 5831 5830 5829 5828 5828 5827 5827 5827 5826 5826 5826 5826 5826 5826 5826 5826 5826 5827 5827 5827 5827 5827 5827 5827 5827 5827 5827 5827 5827 5827 5827 5827 5827 5827
5839 5838 5836 5835 5834 5833 5831 5830 5829 5828 5827 5826 5825 5825 5824 5824 5823 5823 5823 5823 5823 5823 5823 5823 5823 5823 5824 5824 5824 5824 5825 5824 5824 5824 5825 5824 5825 5825 5825 5825 5825 5825 5825
5835 5834 5833 5832 5830 5829 5828 5827 5826 5825 5824 5823 5822 5821 5821 5820 5820 5820 5820 5820 5819 5819 5819 5820 5820 5820 5821 5821 5821 5821 5821 5821 5821 5822 5822 5822 5823 5823 5823 5823 5823 5823 5822
5831 5830 5829 5828 5826 5825 5824 5823 5822 5821 5820 5819 5819 5818 5817 5817 5816 5816 5816 5816 5816 5816 5816 5816 5816 5817 5817 5818 5818 5818 5818 5818 5818 5819 5819 5820 5820 5820 5820 5820 5820 5820 5820